| time (UTC) | temp C | wind direction | speed KPH | gust KPH | rain 1hr cm | rain 24hr cm | rain mn cm | humidity % | barometer mb |
| 20260504090105 | 14 | 227 | 3.2 | 11.3 | 0.00 | 0.00 | 0.00 | 38 | 996.0 |
| 20260504081604 | 13 | 194 | 4.8 | 9.7 | 0.00 | 0.00 | 0.00 | 38 | 997.3 |
| 20260504081104 | 13 | 207 | 6.4 | 9.7 | 0.00 | 0.00 | 0.00 | 37 | 997.5 |
| 20260504080604 | 13 | 214 | 4.8 | 9.7 | 0.00 | 0.00 | 0.00 | 38 | 997.2 |
| 20260504080104 | 14 | 212 | 4.8 | 11.3 | 0.00 | 0.00 | 0.00 | 38 | 997.4 |
| 20260504070104 | 13 | 218 | 4.8 | 11.3 | 0.00 | 0.00 | 0.00 | 38 | 998.4 |
| 20260504060105 | 14 | 205 | 8.0 | 9.7 | 0.00 | 0.00 | 0.00 | 37 | 1000.2 |
| 20260504050604 | 14 | 199 | 4.8 | 9.7 | 0.00 | 0.00 | 0.00 | 37 | 1001.0 |
| 20260504050104 | 16 | 213 | 4.8 | 8.0 | 0.00 | 0.00 | 0.00 | 36 | 1001.2 |
| 20260504045604 | 15 | 205 | 4.8 | 8.0 | 0.00 | 0.00 | 0.00 | 36 | 1001.6 |
| 20260504045105 | 15 | 214 | 3.2 | 8.0 | 0.00 | 0.00 | 0.00 | 38 | 1001.1 |
| 20260504044604 | 15 | 196 | 4.8 | 8.0 | 0.00 | 0.00 | 0.00 | 38 | 1001.0 |
| 20260504044104 | 15 | 232 | 4.8 | 8.0 | 0.00 | 0.00 | 0.00 | 37 | 1001.4 |
| 20260504043104 | 15 | 197 | 3.2 | 4.8 | 0.00 | 0.00 | 0.00 | 36 | 1001.7 |
| 20260504042604 | 14 | 209 | 3.2 | 4.8 | 0.00 | 0.00 | 0.00 | 36 | 1001.9 |
| 20260504042104 | 13 | 214 | 1.6 | 4.8 | 0.00 | 0.00 | 0.00 | 39 | 1001.7 |
| 20260504041104 | 13 | 331 | 0.0 | 1.6 | 0.00 | 0.00 | 0.00 | 42 | 1002.1 |
| 20260504040604 | 13 | 331 | 0.0 | 1.6 | 0.00 | 0.00 | 0.00 | 30 | 1002.1 |
| 20260504035604 | 14 | 330 | 1.6 | 1.6 | 0.00 | 0.00 | 0.00 | 28 | 1002.6 |
| 20260504034604 | 13 | 336 | 0.0 | 1.6 | 0.00 | 0.00 | 0.00 | 33 | 1002.7 |
| 20260504033604 | 13 | 336 | 0.0 | 1.6 | 0.00 | 0.00 | 0.00 | 43 | 1002.8 |
| 20260504033104 | 13 | 336 | 0.0 | 0.0 | 0.00 | 0.00 | 0.00 | 43 | 1002.9 |
| 20260504032604 | 13 | 336 | 0.0 | 0.0 | 0.00 | 0.00 | 0.00 | 42 | 1003.2 |
| 20260504032104 | 12 | 336 | 0.0 | 0.0 | 0.00 | 0.00 | 0.00 | 43 | 1003.1 |
| 20260504031604 | 12 | 336 | 0.0 | 0.0 | 0.00 | 0.00 | 0.00 | 42 | 1003.1 |
| 20260504031104 | 13 | 336 | 0.0 | 0.0 | 0.00 | 0.00 | 0.00 | 41 | 1003.2 |
| 20260504030604 | 14 | 336 | 0.0 | 0.0 | 0.00 | 0.00 | 0.00 | 40 | 1003.2 |
| 20260504030104 | 14 | 336 | 0.0 | 0.0 | 0.00 | 0.00 | 0.00 | 24 | 1003.4 |
| 20260504025603 | 14 | 336 | 0.0 | 0.0 | 0.00 | 0.00 | 0.00 | 40 | 1003.5 |
| 20260504025105 | 15 | 336 | 0.0 | 0.0 | 0.00 | 0.00 | 0.00 | 39 | 1003.5 |
| 20260504024604 | 15 | 336 | 0.0 | 0.0 | 0.00 | 0.00 | 0.00 | 38 | 1003.5 |
| 20260504024104 | 15 | 336 | 0.0 | 0.0 | 0.00 | 0.00 | 0.00 | 30 | 1003.2 |
| 20260504023604 | 15 | 336 | 0.0 | 0.0 | 0.00 | 0.00 | 0.00 | 36 | 1003.3 |
| 20260504023104 | 15 | 336 | 0.0 | 0.0 | 0.00 | 0.00 | 0.00 | 37 | 1003.3 |
| 20260504022604 | 15 | 336 | 0.0 | 0.0 | 0.00 | 0.00 | 0.00 | 36 | 1003.4 |
| 20260504022104 | 16 | 336 | 0.0 | 0.0 | 0.00 | 0.00 | 0.00 | 27 | 1003.5 |
| 20260504021604 | 16 | 336 | 0.0 | 0.0 | 0.00 | 0.00 | 0.00 | 36 | 1003.5 |
| 20260504021104 | 15 | 336 | 0.0 | 0.0 | 0.00 | 0.00 | 0.00 | 35 | 1003.4 |
| 20260504020604 | 16 | 336 | 0.0 | 0.0 | 0.00 | 0.00 | 0.00 | 35 | 1003.2 |
| 20260504020104 | 16 | 336 | 0.0 | 0.0 | 0.00 | 0.00 | 0.00 | 34 | 1003.3 |
| 20260504015604 | 16 | 336 | 0.0 | 0.0 | 0.00 | 0.00 | 0.00 | 33 | 1003.3 |
| 20260504015105 | 17 | 336 | 0.0 | 0.0 | 0.00 | 0.00 | 0.00 | 31 | 1003.3 |
| 20260504014604 | 17 | 336 | 0.0 | 0.0 | 0.00 | 0.00 | 0.00 | 31 | 1003.2 |
| 20260504014104 | 17 | 336 | 0.0 | 0.0 | 0.00 | 0.00 | 0.00 | 31 | 1003.4 |
| 20260504013603 | 17 | 336 | 0.0 | 0.0 | 0.00 | 0.00 | 0.00 | 30 | 1003.1 |
| 20260504012104 | 18 | 336 | 0.0 | 0.0 | 0.00 | 0.00 | 0.00 | 27 | 1003.2 |
| 20260504011603 | 18 | 336 | 0.0 | 0.0 | 0.00 | 0.00 | 0.00 | 27 | 1003.3 |
| 20260504011104 | 18 | 336 | 0.0 | 0.0 | 0.00 | 0.00 | 0.00 | 26 | 1003.3 |
| 20260504010604 | 18 | 336 | 0.0 | 1.6 | 0.00 | 0.00 | 0.00 | 26 | 1003.3 |
| 20260504010104 | 19 | 335 | 0.0 | 8.0 | 0.00 | 0.00 | 0.00 | 24 | 1003.3 |
| 20260504005104 | 19 | 299 | 4.8 | 11.3 | 0.00 | 0.00 | 0.00 | 25 | 1003.1 |
| 20260504004104 | 20 | 241 | 3.2 | 8.0 | 0.00 | 0.00 | 0.00 | 24 | 1003.1 |
| 20260504003604 | 20 | 334 | 1.6 | 11.3 | 0.00 | 0.00 | 0.00 | 24 | 1003.1 |
| 20260504003104 | 20 | 288 | 4.8 | 16.1 | 0.00 | 0.00 | 0.00 | 24 | 1003.3 |
| 20260504002604 | 20 | 298 | 4.8 | 16.1 | 0.00 | 0.00 | 0.00 | 24 | 1003.3 |
| 20260504001604 | 20 | 344 | 1.6 | 16.1 | 0.00 | 0.00 | 0.00 | 24 | 1003.5 |
| 20260504001104 | 20 | 268 | 4.8 | 14.5 | 0.00 | 0.00 | 0.00 | 25 | 1003.2 |
| 20260504000105 | 20 | 298 | 4.8 | 14.5 | 0.00 | 0.00 | 0.00 | 25 | 1003.3 |
| 20260503235604 | 20 | 253 | 6.4 | 19.3 | 0.00 | 0.00 | 0.00 | 23 | 1003.2 |
| 20260503235104 | 20 | 272 | 6.4 | 19.3 | 0.00 | 0.00 | 0.00 | 23 | 1003.5 |
| 20260503234103 | 21 | 275 | 4.8 | 14.5 | 0.00 | 0.00 | 0.00 | 23 | 1003.4 |
| 20260503233604 | 21 | 325 | 3.2 | 22.5 | 0.00 | 0.00 | 0.00 | 22 | 1003.5 |
| 20260503233104 | 21 | 261 | 11.3 | 19.3 | 0.00 | 0.00 | 0.00 | 21 | 1003.4 |
| 20260503232603 | 21 | 335 | 8.0 | 22.5 | 0.00 | 0.00 | 0.00 | 22 | 1003.2 |
| 20260503232104 | 21 | 302 | 9.7 | 19.3 | 0.00 | 0.00 | 0.00 | 22 | 1003.2 |
| 20260503231103 | 21 | 266 | 6.4 | 22.5 | 0.00 | 0.00 | 0.00 | 22 | 1003.3 |
| 20260503230604 | 21 | 273 | 9.7 | 19.3 | 0.00 | 0.00 | 0.00 | 22 | 1003.4 |
| 20260503230104 | 21 | 325 | 3.2 | 22.5 | 0.00 | 0.00 | 0.00 | 23 | 1003.5 |
| 20260503225604 | 22 | 315 | 3.2 | 16.1 | 0.00 | 0.00 | 0.00 | 22 | 1003.6 |
| 20260503224604 | 21 | 298 | 3.2 | 19.3 | 0.00 | 0.00 | 0.00 | 23 | 1003.5 |
| 20260503224104 | 21 | 318 | 8.0 | 25.7 | 0.00 | 0.00 | 0.00 | 22 | 1003.5 |
| 20260503223604 | 22 | 23 | 8.0 | 16.1 | 0.00 | 0.00 | 0.00 | 21 | 1003.7 |
| 20260503223104 | 21 | 341 | 1.6 | 24.1 | 0.00 | 0.00 | 0.00 | 22 | 1003.6 |
| 20260503222605 | 22 | 288 | 11.3 | 19.3 | 0.00 | 0.00 | 0.00 | 21 | 1003.6 |
| 20260503222103 | 21 | 269 | 6.4 | 22.5 | 0.00 | 0.00 | 0.00 | 21 | 1003.9 |
| 20260503221104 | 21 | 244 | 4.8 | 19.3 | 0.00 | 0.00 | 0.00 | 22 | 1003.4 |
| 20260503220604 | 22 | 298 | 11.3 | 19.3 | 0.00 | 0.00 | 0.00 | 21 | 1003.6 |
| 20260503215104 | 22 | 280 | 6.4 | 29.0 | 0.00 | 0.00 | 0.00 | 22 | 1003.8 |
| 20260503214603 | 21 | 299 | 11.3 | 29.0 | 0.00 | 0.00 | 0.00 | 22 | 1004.1 |
| 20260503214104 | 21 | 320 | 8.0 | 24.1 | 0.00 | 0.00 | 0.00 | 21 | 1004.1 |
| 20260503213603 | 21 | 217 | 8.0 | 19.3 | 0.00 | 0.00 | 0.00 | 22 | 1004.2 |
| 20260503213103 | 22 | 305 | 4.8 | 19.3 | 0.00 | 0.00 | 0.00 | 22 | 1004.3 |
| 20260503212604 | 21 | 313 | 9.7 | 22.5 | 0.00 | 0.00 | 0.00 | 23 | 1004.2 |
| 20260503212103 | 21 | 327 | 8.0 | 14.5 | 0.00 | 0.00 | 0.00 | 22 | 1004.3 |
| 20260503211604 | 21 | 271 | 1.6 | 22.5 | 0.00 | 0.00 | 0.00 | 22 | 1005.2 |
| 20260503211103 | 21 | 3 | 8.0 | 22.5 | 0.00 | 0.00 | 0.00 | 23 | 1004.3 |
| 20260503210604 | 21 | 344 | 4.8 | 29.0 | 0.00 | 0.00 | 0.00 | 23 | 1004.4 |
| 20260503210104 | 20 | 312 | 11.3 | 32.2 | 0.00 | 0.00 | 0.00 | 23 | 1004.5 |
| 20260503205604 | 21 | 334 | 20.9 | 32.2 | 0.00 | 0.00 | 0.00 | 23 | 1004.6 |
| 20260503205104 | 20 | 342 | 12.9 | 33.8 | 0.00 | 0.00 | 0.00 | 23 | 1004.9 |
| 20260503203604 | 20 | 342 | 14.5 | 25.7 | 0.00 | 0.00 | 0.00 | 23 | 1004.6 |
| 20260503201604 | 21 | 189 | 6.4 | 19.3 | 0.00 | 0.00 | 0.00 | 23 | 1004.8 |
| 20260503201104 | 20 | 5 | 8.0 | 24.1 | 0.00 | 0.00 | 0.00 | 23 | 1005.0 |
| 20260503200604 | 20 | 337 | 9.7 | 32.2 | 0.00 | 0.00 | 0.00 | 22 | 1005.1 |
| 20260503200104 | 20 | 269 | 8.0 | 32.2 | 0.00 | 0.00 | 0.00 | 21 | 1005.1 |
| 20260503195604 | 21 | 276 | 11.3 | 22.5 | 0.00 | 0.00 | 0.00 | 22 | 1004.9 |
| 20260503195105 | 20 | 344 | 8.0 | 25.7 | 0.00 | 0.00 | 0.00 | 23 | 1005.1 |
| 20260503194604 | 20 | 308 | 6.4 | 25.7 | 0.00 | 0.00 | 0.00 | 23 | 1005.1 |
| 20260503194104 | 20 | 254 | 11.3 | 24.1 | 0.00 | 0.00 | 0.00 | 23 | 1005.0 |
| 20260503193604 | 20 | 319 | 8.0 | 33.8 | 0.00 | 0.00 | 0.00 | 23 | 1005.4 |
| 20260503193104 | 20 | 345 | 14.5 | 33.8 | 0.00 | 0.00 | 0.00 | 25 | 1005.3 |
| 20260503192603 | 20 | 3 | 14.5 | 22.5 | 0.00 | 0.00 | 0.00 | 24 | 1005.2 |
| 20260503192104 | 20 | 332 | 8.0 | 24.1 | 0.00 | 0.00 | 0.00 | 26 | 1005.5 |
| 20260503191603 | 20 | 6 | 4.8 | 24.1 | 0.00 | 0.00 | 0.00 | 26 | 1005.5 |
| 20260503191103 | 20 | 2 | 19.3 | 33.8 | 0.00 | 0.00 | 0.00 | 26 | 1005.4 |
| 20260503190604 | 20 | 226 | 14.5 | 25.7 | 0.00 | 0.00 | 0.00 | 26 | 1005.4 |
| 20260503190104 | 20 | 311 | 14.5 | 25.7 | 0.00 | 0.00 | 0.00 | 27 | 1005.4 |
| 20260503185604 | 20 | 296 | 11.3 | 29.0 | 0.00 | 0.00 | 0.00 | 27 | 1005.4 |
| 20260503185104 | 20 | 334 | 14.5 | 35.4 | 0.00 | 0.00 | 0.00 | 27 | 1005.5 |
| 20260503184604 | 20 | 278 | 14.5 | 35.4 | 0.00 | 0.00 | 0.00 | 27 | 1005.3 |
| 20260503184105 | 21 | 265 | 12.9 | 29.0 | 0.00 | 0.00 | 0.00 | 26 | 1005.5 |
| 20260503183604 | 20 | 319 | 8.0 | 38.6 | 0.00 | 0.00 | 0.00 | 27 | 1005.5 |
| 20260503183104 | 19 | 333 | 14.5 | 38.6 | 0.00 | 0.00 | 0.00 | 27 | 1005.6 |
| 20260503182605 | 19 | 284 | 12.9 | 32.2 | 0.00 | 0.00 | 0.00 | 30 | 1005.4 |
| 20260503182104 | 20 | 291 | 17.7 | 35.4 | 0.00 | 0.00 | 0.00 | 29 | 1005.7 |
| 20260503181104 | 20 | 354 | 16.1 | 38.6 | 0.00 | 0.00 | 0.00 | 28 | 1005.6 |
| 20260503180604 | 20 | 293 | 14.5 | 38.6 | 0.00 | 0.00 | 0.00 | 30 | 1005.8 |
| 20260503180104 | 20 | 334 | 11.3 | 22.5 | 0.00 | 0.00 | 0.00 | 33 | 1005.8 |
| 20260503175603 | 20 | 213 | 4.8 | 25.7 | 0.00 | 0.00 | 0.00 | 32 | 1005.8 |
| 20260503175104 | 19 | 34 | 11.3 | 33.8 | 0.00 | 0.00 | 0.00 | 32 | 1006.0 |
| 20260503174604 | 20 | 359 | 16.1 | 29.0 | 0.00 | 0.00 | 0.00 | 31 | 1005.8 |
| 20260503174103 | 20 | 337 | 19.3 | 33.8 | 0.00 | 0.00 | 0.00 | 30 | 1005.7 |
| 20260503173104 | 20 | 344 | 12.9 | 29.0 | 0.00 | 0.00 | 0.00 | 33 | 1006.0 |
| 20260503172104 | 20 | 345 | 9.7 | 29.0 | 0.00 | 0.00 | 0.00 | 33 | 1006.0 |
| 20260503170604 | 19 | 353 | 8.0 | 25.7 | 0.00 | 0.00 | 0.00 | 36 | 1005.8 |
| 20260503170104 | 18 | 14 | 11.3 | 29.0 | 0.00 | 0.00 | 0.00 | 35 | 1006.2 |
| 20260503160104 | 18 | 1 | 11.3 | 24.1 | 0.00 | 0.00 | 0.00 | 37 | 1005.9 |
| 20260503150605 | 17 | 349 | 8.0 | 24.1 | 0.00 | 0.00 | 0.00 | 39 | 1006.0 |
| 20260503150104 | 16 | 49 | 9.7 | 24.1 | 0.00 | 0.00 | 0.00 | 41 | 1006.0 |
| 20260503140104 | 15 | 17 | 11.3 | 22.5 | 0.00 | 0.00 | 0.00 | 44 | 1005.7 |
| 20260503131104 | 13 | 4 | 9.7 | 22.5 | 0.00 | 0.00 | 0.00 | 48 | 1005.6 |
| 20260503130604 | 13 | 331 | 8.0 | 22.5 | 0.00 | 0.00 | 0.00 | 48 | 1005.6 |
| 20260503130103 | 12 | 290 | 8.0 | 19.3 | 0.00 | 0.00 | 0.00 | 48 | 1005.5 |
| 20260503120105 | 10 | 219 | 0.0 | 1.6 | 0.00 | 0.00 | 0.00 | 56 | 1005.3 |
| 20260503110603 | 11 | 218 | 0.0 | 1.6 | 0.00 | 0.00 | 0.00 | 42 | 1004.6 |
| 20260503100104 | 13 | 212 | 3.2 | 9.7 | 0.00 | 0.00 | 0.00 | 41 | 1004.6 |